This is the latest recevied weather packets stored in our database for station/object K1BES. If no packets are shown the sender has not sent any weather packets the latest 10 day(s).
| Time | Temp. | Humidity | Pressure | Rain* | Wind** | Luminosity | Snow |
|---|---|---|---|---|---|---|---|
| 1788097631 | 30° C | 79% | 1020.1 hPa | 0 mm | - | 491 W/m² | - |
| 1788097326 | 30° C | 81% | 1020 hPa | 0 mm | - | 476 W/m² | - |
| 1788097022 | 28.89° C | 83% | 1019.9 hPa | 0 mm | - | 461 W/m² | - |
| 1788096717 | 28.89° C | 84% | 1019.9 hPa | 0 mm | - | 438 W/m² | - |
| 1788096413 | 28.89° C | 84% | 1020 hPa | 0 mm | - | 244 W/m² | - |
| 1788096109 | 28.33° C | 84% | 1019.6 hPa | 0 mm | - | 117 W/m² | - |
| 1788095808 | 28.33° C | 85% | 1019.7 hPa | 0 mm | - | 219 W/m² | - |
| 1788095502 | 27.78° C | 86% | 1019.7 hPa | 0 mm | - | 246 W/m² | - |
| 1788095198 | 27.22° C | 86% | 1019.8 hPa | 0 mm | - | 149 W/m² | - |
| 1788094897 | 27.22° C | 86% | 1019.7 hPa | 0 mm | - | 102 W/m² | - |
| 1788094597 | 27.22° C | 87% | 1019.5 hPa | 0 mm | - | 78 W/m² | - |
| 1788094292 | 26.67° C | 88% | 1019.4 hPa | 0 mm | - | 83 W/m² | - |
| 1788093990 | 26.67° C | 89% | 1019.5 hPa | 0 mm | - | 77 W/m² | - |
| 1788093685 | 26.11° C | 91% | 1019.4 hPa | 0 mm | - | 53 W/m² | - |
| 1788093383 | 25.56° C | 93% | 1019.7 hPa | 0 mm | - | 55 W/m² | - |
| 1788093078 | 25° C | 94% | 1019.5 hPa | 0 mm | - | 52 W/m² | - |
| 1788092775 | 24.44° C | 96% | 1019.6 hPa | 0 mm | - | 53 W/m² | - |
| 1788092470 | 23.89° C | 96% | 1019.6 hPa | 0 mm | - | 48 W/m² | - |
| 1788092166 | 23.89° C | 96% | 1019.6 hPa | 0 mm | - | 35 W/m² | - |
| 1788091866 | 23.33° C | 96% | 1019.5 hPa | 0 mm | - | 35 W/m² | - |
| 1788091561 | 23.33° C | 97% | 1019.6 hPa | 0 mm | - | 44 W/m² | - |
| 1788091257 | 22.78° C | 97% | 1019.3 hPa | 0 mm | - | 54 W/m² | - |
| 1788090953 | 22.78° C | 97% | 1019.3 hPa | 0 mm | - | 44 W/m² | - |
| 1788090648 | 22.78° C | 97% | 1019.4 hPa | 0 mm | - | 31 W/m² | - |
| 1788090345 | 22.78° C | 97% | 1019.4 hPa | 0 mm | - | 32 W/m² | - |
* Rain latest hour (hover to see other rain measurements)
** Current wind speed in m/s (hover to see current wind gust speed)